Regional Weather Roundup
Issued by NWS Cleveland, OH

Home | Current Version | Previous Version | Graphics & Text | Print | Product List | Glossary On
Versions: 1 2 3 4 5 6 7 8 9 10 11 12 13 14 15 16 17 18 19 20 21 22 23 24 25 26 27 28 29 30 31 32 33 34 35 36 37 38 39 40 41 42 43 44 45 46 47 48 49 50
000
ASUS41 KCLE 091812
RWRCLE
OHIO REGIONAL WEATHER ROUNDUP
NATIONAL WEATHER SERVICE WILMINGTON, OH
100 PM EST FRI DEC 09 2016

NOTE: "FAIR" INDICATES FEW OR NO CLOUDS BELOW 12,000 FEET WITH NO
SIGNIFICANT WEATHER AND/OR OBSTRUCTIONS TO VISIBILITY.

OHZ001>008-015>018-024>027-034-035-043-044-091900-
   NORTHWEST OHIO

CITY           SKY/WX    TMP DP  RH WIND       PRES   REMARKS
DEFIANCE       CLOUDY    30  21  69 W9G18     30.44F WCI  22
FINDLAY        LGT SNOW  27  20  75 W16       30.42F WCI  15
TOLEDO EXPRESS LGT SNOW  28  25  88 W13       30.42R FOG     WCI  17
TOLEDO EXEC    PTSUNNY   32  21  64 W14       30.41F WCI  22
LIMA           LGT SNOW  24  21  88 W16       30.44F FOG     WCI  11
$$

OHZ009>014-019>023-028>033-038-089-091900-
   NORTHEAST OHIO

CITY           SKY/WX    TMP DP  RH WIND       PRES   REMARKS
CLE-HOPKINS    PTSUNNY   32  20  61 W17       30.40F WCI  21
CLE-LAKEFRONT  PTSUNNY   30  22  72 SW17G25   30.36F WCI  18
CUY CO. ARPT   LGT SNOW  28  25  86 W14G23    30.35S WCI  17
LORAIN-ELYRIA  CLOUDY    28  20  71 W14G22    30.39F WCI  17
ASHTABULA      FLURRIES  28  24  85 W9        30.31F WCI  19
AKRON-CANTON   FLURRIES  26  18  71 W14G22    30.36F WCI  14
WOOSTER        FLURRIES  25  19  78 W15       30.38F WCI  13
MANSFIELD      LGT SNOW  24  19  81 SW12G18   30.38S WCI  13
YOUNGSTOWN     LGT SNOW  28  20  71 W15       30.31F WCI  16
$$

OHZ042-051>053-060>062-070>072-077>081-091900-
  SOUTHWEST OHIO

CITY           SKY/WX    TMP DP  RH WIND       PRES   REMARKS
CINC-COVINGTON FLURRIES  24  14  65 W7        30.52F WCI  16
CINC-LUNKEN    CLOUDY    26  15  63 W12       30.57F WCI  16
HAMILTON       CLOUDY    27  16  63 W9        30.54F WCI  18
DAYTON         CLOUDY    25  16  68 W16       30.49S WCI  12
WRIGHT-PAT AFB CLOUDY    26  17  66 SW14      30.49S WCI  15
DAYTON GENERAL CLOUDY    26  15  63 W9        30.49F WCI  17
WILMINGTON     PTSUNNY   24  14  65 W16       30.49F WCI  11
$$

OHZ036-037-039>041-045>050-054>059-063>069-073>076-082>088-091900-
  CENTRAL AND SOUTHEAST OHIO

CITY           SKY/WX    TMP DP  RH WIND       PRES   REMARKS
COLUMBUS       FLURRIES  27  18  69 W9        30.46F WCI  18
OSU AIRPORT    FLURRIES  26  18  71 W12       30.45F WCI  16
BOLTON FIELD   CLOUDY    28  18  64 W15G22    30.46F WCI  17
RICKENBACK AFB   N/A     29  17  60 W14G20    30.46F WCI  19
NEWARK         LGT SNOW  27  18  69 W12       30.44S WCI  17
MARION         FLURRIES  25  19  78 W15       30.43S WCI  13
LANCASTER      PTSUNNY   27  17  66 W13G22    30.46F WCI  16
ZANESVILLE     CLOUDY    28  17  63 SW13      30.43F WCI  17
NEW PHILLY     CLOUDY    26  19  74 W8        30.41F WCI  18
$$




USA.gov is the U.S. government's official web portal to all federal, state and local government web resources and services.